"Pseudo-MPEC" for CCD6A52

Created 2024 Dec 9 19:31:06 UT using Find_Orb

Click here for an explanation of pseudo-MPECs

 
 Astrometry: 
     CCD6A52*1C2024 11 26.42862308 33 00.814+44 08 00.78   ~BQBH       VNEOCPG96
     CCD6A52 1C2024 11 26.43443208 32 40.045+44 08 58.13   ~BQBH       VNEOCPG96
     CCD6A52*1C2024 11 26.44149608 32 14.939+44 10 06.78   ~BQGlx19.69GVNEOCPG96
     CCD6A52 1C2024 11 26.44386608 32 06.043+44 10 30.83   ~BQBHx20.31GVNEOCPG96
     CCD6A52 1C2024 11 26.44730108 31 53.890+44 11 02.94   ~BQGl 19.53GVNEOCPG96
     CCD6A52 1C2024 11 26.45310308 31 33.424+44 11 57.37   ~BQGl 19.39GVNEOCPG96
     CCD6A52 KC2024 11 26.48514308 29 40.783+44 16 38.82   ~BQGl 19.30GVNEOCPI52
     CCD6A52 KC2024 11 26.48635708 29 36.539+44 16 48.72   ~BQGl 19.25GVNEOCPI52
     CCD6A52 KC2024 11 26.48756108 29 32.341+44 16 58.76   ~BQGl 19.14GVNEOCPI52

Station data:
(G96) Mt. Lemmon Survey  (N32.442729 W110.788720)  US/Arizona.  Observer E.
   J. Christensen. 1.5-m reflector + 10K CCD.
(I52) Steward Observatory, Mt. Lemmon Station  (N32.442570 W110.788920)
   US/Arizona.  Observers T. A. Pruyne, B. M. Africano, E. J. Christensen, G.
   A. Farneth, D. C. Fuls, A. R. Gibbs, A. D. Grauer, H. Gröller, J. A.
   Johnson, R. A. Kowalski, S. M. Larson, G. J. Leonard, D. Rankin, R. L.
   Seaman, F. C. Shelly, K. W. Wierzchoś. 1.0-m prime focus + CCD.

Orbital elements:  CCD6A52
   Perihelion 2024 Oct 24.81679 +/- 1.45 TT = 19:36:10 (JD 2460608.31679)
Epoch 2024 Nov 26.0 TT = JDT 2460640.5   Earth MOID: 0.0019   Ma: 0.0488
M  16.10170931 +/- 2.6              (J2000 ecliptic)             AutoNEOCP
n   0.50031397 +/- 0.0634           Peri.  321.86823 +/- 1.3
a   1.57147554 +/- 0.136            Node    61.90144 +/- 0.16
e   0.4135443 +/- 0.0526            Incl.    5.41364 +/- 0.51
P   1.970/719.535d         H 27.18  G  0.15   U 10.9
q 0.92160073 +/- 0.00637    Q 2.22135034 +/- 0.276
7 of 9 observations 2024 Nov. 26 (84.9 min); mean residual 0".42
Residuals in arcseconds: 
241126 G96  .28-  .21+    241126 G96( 2.1-  .64+)   241126 I52  .25+  .05+    
241126 G96  .68+  .33-    241126 G96  1.1-  .05+    241126 I52  .03-  .09-    
241126 G96( 2.6+  .63-)   241126 G96  .68+  .09+    241126 I52  .22-  .03+    

Ephemerides (geocentric):
Date (UTC) HH   RA             Dec           delta  r     elong  mag " sig PA
---- --------  ------------   ------------  ------ ------ -----  --- --------
2024 12 09 20  06 33 16.133   +45 14 18.27  .07923 1.0552 151.6 23.0  211  58
2024 12 09 21  06 33 11.871   +45 14 04.00  .07945 1.0554 151.7 23.0  211  58
2024 12 09 22  06 33 07.625   +45 13 49.71  .07967 1.0556 151.7 23.0  211  58
2024 12 09 23  06 33 03.396   +45 13 35.41  .07988 1.0558 151.7 23.0  211  58
2024 12 10 00  06 32 59.183   +45 13 21.08  .08010 1.0561 151.8 23.0  210  58
2024 12 10 01  06 32 54.987   +45 13 06.74  .08032 1.0563 151.8 23.0  210  58
2024 12 10 02  06 32 50.806   +45 12 52.38  .08054 1.0565 151.9 23.0  210  58
2024 12 10 03  06 32 46.641   +45 12 38.00  .08076 1.0567 151.9 23.0  210  58
2024 12 10 04  06 32 42.492   +45 12 23.60  .08098 1.0569 151.9 23.0  209  58
2024 12 10 05  06 32 38.358   +45 12 09.19  .08120 1.0571 152.0 23.0  209  58
2024 12 10 06  06 32 34.241   +45 11 54.75  .08141 1.0573 152.0 23.0  209  58
2024 12 10 07  06 32 30.138   +45 11 40.30  .08163 1.0576 152.0 23.0  209  58
2024 12 10 08  06 32 26.051   +45 11 25.83  .08185 1.0578 152.1 23.0  208  58
2024 12 10 09  06 32 21.979   +45 11 11.33  .08207 1.0580 152.1 23.1  208  58
2024 12 10 10  06 32 17.922   +45 10 56.82  .08229 1.0582 152.1 23.1  208  58
2024 12 10 11  06 32 13.880   +45 10 42.29  .08251 1.0584 152.2 23.1  208  58
2024 12 10 12  06 32 09.853   +45 10 27.75  .08273 1.0586 152.2 23.1  207  58
2024 12 10 13  06 32 05.841   +45 10 13.18  .08295 1.0588 152.3 23.1  207  58
2024 12 10 14  06 32 01.843   +45 09 58.59  .08317 1.0591 152.3 23.1  207  58
2024 12 10 15  06 31 57.860   +45 09 43.99  .08339 1.0593 152.3 23.1  207  58
2024 12 10 16  06 31 53.891   +45 09 29.37  .08360 1.0595 152.4 23.1  206  58
2024 12 10 17  06 31 49.936   +45 09 14.72  .08382 1.0597 152.4 23.1  206  58
2024 12 10 18  06 31 45.996   +45 09 00.06  .08404 1.0599 152.4 23.1  206  58
2024 12 10 19  06 31 42.070   +45 08 45.38  .08426 1.0601 152.5 23.1  206  58
2024 12 10 20  06 31 38.158   +45 08 30.68  .08448 1.0604 152.5 23.1  205  58
2024 12 10 21  06 31 34.260   +45 08 15.96  .08470 1.0606 152.5 23.1  205  58
2024 12 10 22  06 31 30.376   +45 08 01.23  .08492 1.0608 152.6 23.1  205  58
2024 12 10 23  06 31 26.505   +45 07 46.47  .08514 1.0610 152.6 23.1  205  58
2024 12 11 00  06 31 22.648   +45 07 31.69  .08536 1.0612 152.7 23.1  204  58
2024 12 11 01  06 31 18.804   +45 07 16.90  .08558 1.0614 152.7 23.1  204  58
2024 12 11 02  06 31 14.974   +45 07 02.09  .08580 1.0617 152.7 23.1  204  58
2024 12 11 03  06 31 11.158   +45 06 47.25  .08602 1.0619 152.8 23.1  204  58
2024 12 11 04  06 31 07.354   +45 06 32.40  .08624 1.0621 152.8 23.1  204  58
2024 12 11 05  06 31 03.564   +45 06 17.53  .08646 1.0623 152.8 23.2  203  58
2024 12 11 06  06 30 59.786   +45 06 02.64  .08668 1.0625 152.9 23.2  203  58
2024 12 11 07  06 30 56.022   +45 05 47.73  .08690 1.0627 152.9 23.2  203  58
2024 12 11 08  06 30 52.271   +45 05 32.80  .08712 1.0630 152.9 23.2  203  58
2024 12 11 09  06 30 48.532   +45 05 17.85  .08734 1.0632 153.0 23.2  202  58
2024 12 11 10  06 30 44.806   +45 05 02.88  .08756 1.0634 153.0 23.2  202  58
2024 12 11 11  06 30 41.093   +45 04 47.90  .08778 1.0636 153.0 23.2  202  58
2024 12 11 12  06 30 37.392   +45 04 32.89  .08800 1.0638 153.1 23.2  202  58
2024 12 11 13  06 30 33.703   +45 04 17.87  .08822 1.0640 153.1 23.2  201  58
2024 12 11 14  06 30 30.027   +45 04 02.82  .08844 1.0643 153.1 23.2  201  58
2024 12 11 15  06 30 26.364   +45 03 47.76  .08866 1.0645 153.2 23.2  201  58
2024 12 11 16  06 30 22.712   +45 03 32.67  .08888 1.0647 153.2 23.2  201  58
2024 12 11 17  06 30 19.073   +45 03 17.57  .08911 1.0649 153.2 23.2  200  58
2024 12 11 18  06 30 15.445   +45 03 02.45  .08933 1.0651 153.3 23.2  200  58
2024 12 11 19  06 30 11.830   +45 02 47.31  .08955 1.0653 153.3 23.2  200  58